When you browse on this site, cookies collect data to enhance your experience and personalize the content and advertising you see.
Visit our Privacy Policy to learn more. By continuing to use the site, you agree to this use of cookies and data.
  • In Latvia
  • List of Countries
  • For 7 days
  • Water Temperature
  • Weather Map
  • Weather Widgets
  • user-avatar
    Login

    Hourly Weather Druskininkai

    Today, 16 October, Wednesday

    Time Temperature Precipitation Wind Pressure Humidity
    00:00 +15°C° 0 mm 4 mps 750 mmHg 80%
    01:00 +15°C° 0 mm 4 mps 750 mmHg 79%
    02:00 +15°C° 0 mm 4 mps 750 mmHg 73%
    03:00 +14°C° 0 mm 4 mps 749 mmHg 74%
    04:00 +13°C° 0 mm 4 mps 749 mmHg 74%
    05:00 +13°C° 0 mm 4 mps 748 mmHg 75%
    06:00 +13°C° 0 mm 4 mps 748 mmHg 76%
    07:00 +12°C° 0 mm 4 mps 748 mmHg 77%
    08:00 +12°C° 0 mm 4 mps 748 mmHg 78%
    09:00 +14°C° 0 mm 4 mps 748 mmHg 73%
    10:00 +15°C° 0 mm 5 mps 748 mmHg 68%
    11:00 +17°C° 0 mm 5 mps 748 mmHg 63%
    12:00 +19°C° 0 mm 5 mps 747 mmHg 61%
    13:00 +19°C° 0 mm 5 mps 747 mmHg 58%
    14:00 +20°C° 0 mm 5 mps 747 mmHg 56%
    15:00 +20°C° 0 mm 4 mps 747 mmHg 60%
    16:00 +19°C° 0 mm 4 mps 747 mmHg 65%
    17:00 +18°C° 0 mm 3 mps 747 mmHg 69%
    18:00 +18°C° 0 mm 3 mps 747 mmHg 72%
    19:00 +17°C° 0 mm 3 mps 747 mmHg 75%
    20:00 +17°C° 0 mm 3 mps 748 mmHg 78%
    21:00 +17°C° 0.1 mm 3 mps 748 mmHg 81%
    22:00 +15°C° 0.1 mm 4 mps 748 mmHg 84%
    23:00 +15°C° 0.1 mm 4 mps 748 mmHg 86%

    Tomorrow, 17 October, Thursday

    Time Temperature Precipitation Wind Pressure Humidity
    00:00 +14°C° 0 mm 4 mps 749 mmHg 85%
    01:00 +13°C° 0 mm 4 mps 749 mmHg 83%
    02:00 +12°C° 0 mm 4 mps 749 mmHg 81%
    03:00 +12°C° 0 mm 4 mps 749 mmHg 80%
    04:00 +10°C° 0 mm 5 mps 749 mmHg 79%
    05:00 +10°C° 0 mm 6 mps 748 mmHg 77%
    06:00 +11°C° 0.1 mm 6 mps 749 mmHg 77%
    07:00 +11°C° 0.1 mm 6 mps 749 mmHg 77%
    08:00 +11°C° 0.1 mm 7 mps 749 mmHg 77%
    09:00 +13°C° 0 mm 6 mps 749 mmHg 77%
    10:00 +13°C° 0 mm 6 mps 750 mmHg 77%
    11:00 +14°C° 0 mm 5 mps 751 mmHg 77%
    12:00 +15°C° 0 mm 5 mps 751 mmHg 72%
    13:00 +16°C° 0 mm 5 mps 751 mmHg 67%
    14:00 +17°C° 0 mm 5 mps 751 mmHg 62%
    15:00 +17°C° 0 mm 4 mps 751 mmHg 65%
    16:00 +16°C° 0 mm 3 mps 752 mmHg 68%
    17:00 +14°C° 0 mm 3 mps 752 mmHg 71%
    18:00 +14°C° 0 mm 2 mps 752 mmHg 76%
    19:00 +14°C° 0 mm 2 mps 752 mmHg 81%
    20:00 +13°C° 0 mm 2 mps 752 mmHg 85%
    21:00 +13°C° 0 mm 2 mps 752 mmHg 86%
    22:00 +12°C° 0 mm 2 mps 753 mmHg 88%
    23:00 +12°C° 0 mm 2 mps 753 mmHg 89%

    Day after tomorrow, 18 October, Friday

    Time Temperature Precipitation Wind Pressure Humidity
    00:00 +12°C° 0 mm 2 mps 753 mmHg 88%
    01:00 +12°C° 0 mm 2 mps 753 mmHg 88%
    02:00 +12°C° 0 mm 2 mps 753 mmHg 88%
    03:00 +10°C° 0 mm 2 mps 753 mmHg 88%
    04:00 +10°C° 0 mm 2 mps 753 mmHg 87%
    05:00 +10°C° 0 mm 2 mps 753 mmHg 87%
    06:00 +10°C° 0 mm 2 mps 753 mmHg 86%
    07:00 +10°C° 0 mm 2 mps 753 mmHg 85%
    08:00 +10°C° 0 mm 2 mps 753 mmHg 84%
    09:00 +13°C° 0 mm 2 mps 753 mmHg 78%
    10:00 +15°C° 0 mm 2 mps 753 mmHg 72%
    11:00 +16°C° 0 mm 2 mps 753 mmHg 66%
    12:00 +16°C° 0 mm 2 mps 753 mmHg 67%
    13:00 +16°C° 0 mm 2 mps 753 mmHg 67%
    14:00 +16°C° 0 mm 2 mps 753 mmHg 68%
    15:00 +16°C° 0 mm 2 mps 753 mmHg 71%
    16:00 +15°C° 0 mm 2 mps 752 mmHg 74%
    17:00 +15°C° 0 mm 2 mps 752 mmHg 77%
    18:00 +14°C° 0 mm 2 mps 752 mmHg 80%
    19:00 +13°C° 0 mm 2 mps 752 mmHg 83%
    20:00 +13°C° 0 mm 2 mps 752 mmHg 86%
    21:00 +12°C° 0 mm 2 mps 752 mmHg 87%
    22:00 +12°C° 0 mm 2 mps 752 mmHg 88%
    23:00 +12°C° 0 mm 2 mps 752 mmHg 90%

    19 October, Saturday

    Time Temperature Precipitation Wind Pressure Humidity
    00:00 +12°C° 0 mm 2 mps 752 mmHg 90%
    01:00 +12°C° 0 mm 2 mps 752 mmHg 91%
    02:00 +12°C° 0 mm 2 mps 752 mmHg 91%
    03:00 +12°C° 0 mm 2 mps 752 mmHg 92%
    04:00 +12°C° 0 mm 2 mps 752 mmHg 93%
    05:00 +12°C° 0 mm 2 mps 752 mmHg 93%
    06:00 +12°C° 0 mm 2 mps 752 mmHg 93%
    07:00 +12°C° 0 mm 2 mps 752 mmHg 93%
    08:00 +12°C° 0 mm 2 mps 752 mmHg 92%
    09:00 +14°C° 0 mm 2 mps 752 mmHg 85%
    10:00 +16°C° 0 mm 2 mps 752 mmHg 78%
    11:00 +17°C° 0 mm 2 mps 752 mmHg 71%
    12:00 +18°C° 0 mm 2 mps 752 mmHg 67%
    13:00 +19°C° 0 mm 2 mps 752 mmHg 64%
    14:00 +20°C° 0 mm 2 mps 752 mmHg 60%
    15:00 +20°C° 0 mm 1 mps 752 mmHg 65%
    16:00 +19°C° 0 mm 1 mps 752 mmHg 70%
    17:00 +16°C° 0 mm 1 mps 751 mmHg 75%
    18:00 +16°C° 0 mm 1 mps 752 mmHg 78%
    19:00 +15°C° 0 mm 2 mps 752 mmHg 81%
    20:00 +14°C° 0 mm 2 mps 752 mmHg 85%
    21:00 +14°C° 0 mm 2 mps 752 mmHg 85%
    22:00 +14°C° 0 mm 2 mps 752 mmHg 85%
    23:00 +14°C° 0 mm 2 mps 752 mmHg 85%

    20 October, Sunday

    Time Temperature Precipitation Wind Pressure Humidity
    00:00 +14°C° 0 mm 2 mps 752 mmHg 85%
    01:00 +14°C° 0 mm 2 mps 751 mmHg 84%
    02:00 +14°C° 0 mm 2 mps 751 mmHg 83%
    03:00 +14°C° 0 mm 2 mps 751 mmHg 85%
    04:00 +13°C° 0 mm 2 mps 751 mmHg 87%
    05:00 +13°C° 0 mm 2 mps 751 mmHg 88%
    06:00 +13°C° 0 mm 2 mps 751 mmHg 89%
    07:00 +13°C° 0 mm 2 mps 751 mmHg 89%
    08:00 +13°C° 0 mm 2 mps 751 mmHg 90%
    09:00 +14°C° 0 mm 2 mps 752 mmHg 84%
    10:00 +14°C° 0 mm 3 mps 752 mmHg 78%
    11:00 +17°C° 0 mm 3 mps 752 mmHg 71%
    12:00 +18°C° 0 mm 3 mps 752 mmHg 68%
    13:00 +18°C° 0 mm 3 mps 751 mmHg 65%
    14:00 +19°C° 0 mm 3 mps 751 mmHg 62%
    15:00 +18°C° 0 mm 3 mps 751 mmHg 66%
    16:00 +17°C° 0 mm 2 mps 751 mmHg 70%
    17:00 +18°C° 0 mm 1 mps 751 mmHg 74%
    18:00 +16°C° 0 mm 1 mps 751 mmHg 77%
    19:00 +15°C° 0 mm 1 mps 752 mmHg 79%
    20:00 +14°C° 0 mm 1 mps 752 mmHg 82%
    21:00 +14°C° 0 mm 1 mps 752 mmHg 84%
    22:00 +14°C° 0 mm 2 mps 752 mmHg 86%
    23:00 +13°C° 0 mm 2 mps 753 mmHg 89%

    21 October, Monday

    Time Temperature Precipitation Wind Pressure Humidity
    00:00 +13°C° 0 mm 2 mps 753 mmHg 90%
    01:00 +13°C° 0 mm 2 mps 753 mmHg 90%
    02:00 +12°C° 0 mm 2 mps 754 mmHg 91%
    03:00 +12°C° 0 mm 2 mps 754 mmHg 92%
    04:00 +12°C° 0 mm 2 mps 754 mmHg 93%
    05:00 +12°C° 0 mm 1 mps 754 mmHg 94%
    06:00 +12°C° 0 mm 1 mps 755 mmHg 94%
    07:00 +11°C° 0 mm 1 mps 755 mmHg 95%
    08:00 +11°C° 0 mm 1 mps 755 mmHg 95%
    09:00 +13°C° 0 mm 1 mps 756 mmHg 89%
    10:00 +15°C° 0 mm 1 mps 756 mmHg 82%
    11:00 +16°C° 0 mm 1 mps 757 mmHg 75%
    12:00 +18°C° 0 mm 1 mps 757 mmHg 72%
    13:00 +18°C° 0 mm 1 mps 757 mmHg 69%
    14:00 +19°C° 0 mm 1 mps 757 mmHg 66%
    15:00 +18°C° 0 mm 1 mps 757 mmHg 71%
    16:00 +16°C° 0 mm 1 mps 757 mmHg 75%
    17:00 +15°C° 0 mm 1 mps 757 mmHg 80%
    18:00 +14°C° 0 mm 1 mps 757 mmHg 84%
    19:00 +13°C° 0 mm 1 mps 758 mmHg 87%
    20:00 +12°C° 0 mm 1 mps 758 mmHg 90%
    21:00 +12°C° 0 mm 1 mps 758 mmHg 92%
    22:00 +12°C° 0 mm 1 mps 759 mmHg 93%
    23:00 +11°C° 0 mm 1 mps 759 mmHg 94%
    Show more